ALSAT 2A

导读

ALSAT-2A是阿尔及利亚(DZ为阿尔及利亚国家代码)于2010年7月12日成功发射的光学遥感卫星,是阿尔及利亚第二代对地观测卫星系统的首星。该卫星运行于太阳同步轨道,搭载高分辨率光学相机,主要服务于国土测绘、农林监测、灾害防控、城市规划等领域,推动了阿尔及利亚自主航天遥感应用能力发展,是非洲航天发展的重要标志。

基本信息
目录编号:
36798
目录名称:
ALSAT 2A
国际标识:
2010-035D
轨道中心:
EARTH
卫星名称:
ALSAT 2A
卫星全名:
--
卫星状态:
在轨 (已飞行5908 天)
发射日期:
2010-07-12 UTC
国别 :
(DZ)
星等 :
--
该卫星已列入 空间交会检测服务 Space Conjunction Data Service (SCDS) ,当前飞行风险评估等级: 无高风险
轨道信息
数据来源 国际轨道数据 AOE轨道数据
星历时间 2026-09-14T07:30:10+0800
7小时前
查看轨道信息
2026-09-10T18:00:00+0800
3天前
查看轨道信息
半长轴 7024.589km 7024.582km
偏心率 0.0001248 0.000112
轨道倾角 97.768° 97.769°
近地点辐角 64.414° 75.841°
升交点赤经 255.910° 252.494°
平近点角 295.719° 103.614°
近地点 645.575km 645.658km
远地点 647.329km 647.232km
周期 97.654分钟 97.654分钟
每日圈数 14.745904 14.745928
详细信息
使用方式:
暂无
2D轨道图
3D轨道图
轨道高度分析图
轨道倾角分析图
轨道综合分析图
查看轨道综合分析图
交会数据列表
事件ID 空间交会对象 最接近时刻(TCA) 交会距离 交会风险概率(CRP) 交会风险指数(CRI) 操作
CDM_260914-183403-462603-679826
ALSAT 2A (36798)
2026-09-14T
18:34:24+0000
1.074 km
极远距离
1.879263E-5 中风险 0.6
CDM_260916-044002-889203-679823
UWE-1 (28892)
ALSAT 2A (36798)
2026-09-16T
04:40:00+0000
2.517 km
极远距离
1.72542E-6 低风险 0.4
与全量物体交会距离演化趋势 订阅飞行安全评估服务
与全量物体交会风险概率演化趋势 订阅飞行安全评估服务